Location: Newark
(37.8333°N, 119.5000°W)
Time: 08:45:10
(UTC+00:00)

Tiros 1 despin weight - Pass Details

Date: 21 August 2019
Orbit: 594 x 642 km, 48.2° (Epoch: 23 September)

Event Time Altitude Azimuth Distance (km) Brightness Sun altitude
Rises 09:47:04 0° 280° (W) 2,849 - -34.2°
Reaches altitude 10° 09:49:42 10° 294° (WNW) 1,955 - -33.9°
Maximum altitude 09:53:23 24° 350° (N) 1,269 - -33.5°
Exits shadow 09:54:25 22° 11° (N) 1,341 ? -33.4°
Drops below altitude 10° 09:57:07 10° 45° (NE) 1,982 ? -33.1°
Sets 09:59:49 0° 59° (ENE) 2,898 ? -32.8°
